• In Netherlands
  • List of Countries
  • For 7 days
  • Water Temperature
  • Satellite Maps
  • Weather Map
  • Weather Widgets
  • user-avatar
    Login

    Hourly Weather Varna

    Today, 21 September, Thursday

    Time Temperature Precipitation Wind Pressure Humidity
    00:00 +21°C° 0 mm 5 mps 740 mmHg 83%
    01:00 +20°C° 0 mm 5 mps 740 mmHg 85%
    02:00 +19°C° 0 mm 6 mps 740 mmHg 66%
    03:00 +17°C° 0 mm 6 mps 740 mmHg 65%
    04:00 +17°C° 0 mm 7 mps 741 mmHg 64%
    05:00 +16°C° 0 mm 7 mps 741 mmHg 62%
    06:00 +17°C° 0 mm 7 mps 741 mmHg 60%
    07:00 +17°C° 0 mm 7 mps 741 mmHg 58%
    08:00 +17°C° 0 mm 7 mps 742 mmHg 56%
    09:00 +17°C° 0.1 mm 7 mps 742 mmHg 53%
    10:00 +18°C° 0.1 mm 7 mps 742 mmHg 49%
    11:00 +20°C° 0.1 mm 7 mps 742 mmHg 46%
    12:00 +21°C° 0 mm 6 mps 742 mmHg 42%
    13:00 +23°C° 0 mm 5 mps 742 mmHg 38%
    14:00 +26°C° 0 mm 4 mps 742 mmHg 34%
    15:00 +25°C° 0 mm 4 mps 742 mmHg 34%
    16:00 +25°C° 0 mm 4 mps 742 mmHg 34%
    17:00 +23°C° 0 mm 4 mps 742 mmHg 35%
    18:00 +22°C° 0 mm 4 mps 742 mmHg 38%
    19:00 +20°C° 0 mm 5 mps 743 mmHg 41%
    20:00 +17°C° 0 mm 6 mps 743 mmHg 44%
    21:00 +16°C° 0 mm 6 mps 743 mmHg 48%
    22:00 +16°C° 0 mm 7 mps 744 mmHg 51%
    23:00 +15°C° 0 mm 8 mps 744 mmHg 54%

    Tomorrow, 22 September, Friday

    Time Temperature Precipitation Wind Pressure Humidity
    00:00 +15°C° 0 mm 8 mps 744 mmHg 57%
    01:00 +13°C° 0 mm 8 mps 744 mmHg 59%
    02:00 +13°C° 0 mm 8 mps 744 mmHg 62%
    03:00 +12°C° 0 mm 8 mps 744 mmHg 64%
    04:00 +12°C° 0 mm 8 mps 744 mmHg 66%
    05:00 +11°C° 0 mm 8 mps 744 mmHg 68%
    06:00 +12°C° 0 mm 8 mps 745 mmHg 65%
    07:00 +12°C° 0 mm 8 mps 745 mmHg 61%
    08:00 +13°C° 0 mm 8 mps 745 mmHg 58%
    09:00 +16°C° 0 mm 8 mps 745 mmHg 53%
    10:00 +17°C° 0 mm 7 mps 745 mmHg 47%
    11:00 +20°C° 0 mm 7 mps 745 mmHg 41%
    12:00 +20°C° 0 mm 7 mps 745 mmHg 40%
    13:00 +21°C° 0 mm 7 mps 745 mmHg 39%
    14:00 +21°C° 0 mm 7 mps 745 mmHg 38%
    15:00 +21°C° 0 mm 7 mps 745 mmHg 40%
    16:00 +20°C° 0 mm 7 mps 745 mmHg 43%
    17:00 +20°C° 0 mm 7 mps 745 mmHg 45%
    18:00 +17°C° 0 mm 7 mps 745 mmHg 51%
    19:00 +16°C° 0 mm 6 mps 746 mmHg 56%
    20:00 +14°C° 0 mm 6 mps 746 mmHg 62%
    21:00 +14°C° 0 mm 6 mps 746 mmHg 63%
    22:00 +14°C° 0 mm 7 mps 747 mmHg 65%
    23:00 +12°C° 0 mm 7 mps 747 mmHg 66%

    Day after tomorrow, 23 September, Saturday

    Time Temperature Precipitation Wind Pressure Humidity
    00:00 +13°C° 0 mm 6 mps 747 mmHg 68%
    01:00 +11°C° 0 mm 6 mps 747 mmHg 70%
    02:00 +11°C° 0 mm 6 mps 747 mmHg 72%
    03:00 +12°C° 0 mm 5 mps 747 mmHg 74%
    04:00 +10°C° 0 mm 5 mps 747 mmHg 75%
    05:00 +10°C° 0 mm 5 mps 747 mmHg 76%
    06:00 +12°C° 0 mm 5 mps 748 mmHg 72%
    07:00 +13°C° 0 mm 5 mps 748 mmHg 68%
    08:00 +14°C° 0 mm 6 mps 748 mmHg 64%
    09:00 +16°C° 0 mm 5 mps 748 mmHg 57%
    10:00 +19°C° 0 mm 5 mps 748 mmHg 51%
    11:00 +21°C° 0 mm 5 mps 748 mmHg 44%
    12:00 +21°C° 0 mm 5 mps 748 mmHg 43%
    13:00 +21°C° 0 mm 5 mps 748 mmHg 42%
    14:00 +22°C° 0 mm 5 mps 748 mmHg 41%
    15:00 +22°C° 0 mm 4 mps 748 mmHg 41%
    16:00 +22°C° 0 mm 4 mps 748 mmHg 41%
    17:00 +21°C° 0 mm 4 mps 748 mmHg 41%
    18:00 +20°C° 0 mm 4 mps 748 mmHg 45%
    19:00 +19°C° 0 mm 3 mps 748 mmHg 48%
    20:00 +18°C° 0 mm 3 mps 749 mmHg 51%
    21:00 +17°C° 0 mm 3 mps 749 mmHg 52%
    22:00 +16°C° 0 mm 3 mps 749 mmHg 54%
    23:00 +16°C° 0 mm 3 mps 749 mmHg 56%

    24 September, Sunday

    Time Temperature Precipitation Wind Pressure Humidity
    00:00 +14°C° 0 mm 3 mps 749 mmHg 56%
    01:00 +15°C° 0 mm 2 mps 749 mmHg 56%
    02:00 +14°C° 0 mm 2 mps 749 mmHg 56%
    03:00 +14°C° 0 mm 2 mps 749 mmHg 56%
    04:00 +14°C° 0 mm 2 mps 749 mmHg 56%
    05:00 +14°C° 0 mm 2 mps 749 mmHg 56%
    06:00 +15°C° 0 mm 2 mps 749 mmHg 52%
    07:00 +18°C° 0 mm 1 mps 749 mmHg 47%
    08:00 +19°C° 0 mm 1 mps 749 mmHg 42%
    09:00 +21°C° 0 mm 1 mps 749 mmHg 39%
    10:00 +23°C° 0 mm 2 mps 750 mmHg 35%
    11:00 +25°C° 0 mm 2 mps 750 mmHg 31%
    12:00 +25°C° 0 mm 3 mps 749 mmHg 31%
    13:00 +26°C° 0 mm 3 mps 749 mmHg 31%
    14:00 +26°C° 0 mm 3 mps 749 mmHg 30%
    15:00 +25°C° 0 mm 4 mps 749 mmHg 36%
    16:00 +23°C° 0 mm 4 mps 749 mmHg 41%
    17:00 +22°C° 0 mm 4 mps 749 mmHg 46%
    18:00 +21°C° 0 mm 4 mps 749 mmHg 54%
    19:00 +20°C° 0 mm 4 mps 749 mmHg 62%
    20:00 +18°C° 0 mm 4 mps 750 mmHg 69%
    21:00 +18°C° 0 mm 3 mps 750 mmHg 72%
    22:00 +17°C° 0 mm 3 mps 750 mmHg 75%
    23:00 +17°C° 0 mm 3 mps 750 mmHg 78%

    25 September, Monday

    Time Temperature Precipitation Wind Pressure Humidity
    00:00 +17°C° 0 mm 2 mps 749 mmHg 79%
    01:00 +16°C° 0 mm 2 mps 749 mmHg 81%
    02:00 +16°C° 0 mm 2 mps 749 mmHg 82%
    03:00 +16°C° 0 mm 2 mps 749 mmHg 83%
    04:00 +16°C° 0 mm 3 mps 749 mmHg 83%
    05:00 +14°C° 0 mm 3 mps 749 mmHg 84%
    06:00 +17°C° 0.1 mm 4 mps 749 mmHg 78%
    07:00 +18°C° 0.1 mm 4 mps 749 mmHg 72%
    08:00 +19°C° 0.1 mm 5 mps 750 mmHg 66%
    09:00 +21°C° 0.2 mm 5 mps 750 mmHg 59%
    10:00 +23°C° 0.2 mm 5 mps 750 mmHg 53%
    11:00 +24°C° 0.2 mm 6 mps 750 mmHg 47%
    12:00 +24°C° 0 mm 6 mps 749 mmHg 46%
    13:00 +26°C° 0 mm 6 mps 749 mmHg 45%
    14:00 +26°C° 0 mm 6 mps 749 mmHg 45%
    15:00 +24°C° 0.1 mm 6 mps 749 mmHg 48%
    16:00 +24°C° 0.1 mm 6 mps 749 mmHg 52%
    17:00 +23°C° 0.1 mm 6 mps 749 mmHg 55%
    18:00 +21°C° 0 mm 6 mps 749 mmHg 62%
    19:00 +20°C° 0 mm 5 mps 749 mmHg 69%
    20:00 +19°C° 0 mm 5 mps 749 mmHg 76%
    21:00 +17°C° 0 mm 5 mps 749 mmHg 78%
    22:00 +17°C° 0 mm 4 mps 748 mmHg 80%
    23:00 +17°C° 0 mm 4 mps 748 mmHg 82%

    26 September, Tuesday

    Time Temperature Precipitation Wind Pressure Humidity
    00:00 +15°C° 0 mm 4 mps 748 mmHg 82%
    01:00 +15°C° 0 mm 4 mps 748 mmHg 83%
    02:00 +15°C° 0 mm 4 mps 748 mmHg 84%
    03:00 +14°C° 0 mm 5 mps 747 mmHg 85%
    04:00 +14°C° 0 mm 5 mps 747 mmHg 85%
    05:00 +14°C° 0 mm 5 mps 747 mmHg 85%
    06:00 +15°C° 0 mm 5 mps 747 mmHg 79%
    07:00 +16°C° 0 mm 6 mps 747 mmHg 74%
    08:00 +17°C° 0 mm 6 mps 747 mmHg 68%
    09:00 +20°C° 0 mm 6 mps 748 mmHg 63%
    10:00 +22°C° 0 mm 6 mps 748 mmHg 58%
    11:00 +24°C° 0 mm 6 mps 748 mmHg 53%
    12:00 +23°C° 0.2 mm 7 mps 748 mmHg 54%
    13:00 +23°C° 0.2 mm 7 mps 748 mmHg 56%
    14:00 +22°C° 0.2 mm 7 mps 748 mmHg 57%
    15:00 +22°C° 0 mm 7 mps 748 mmHg 58%
    16:00 +21°C° 0 mm 8 mps 748 mmHg 58%
    17:00 +21°C° 0 mm 8 mps 748 mmHg 59%
    18:00 +20°C° 0 mm 7 mps 748 mmHg 62%
    19:00 +17°C° 0 mm 7 mps 748 mmHg 64%
    20:00 +16°C° 0 mm 6 mps 749 mmHg 67%
    21:00 +16°C° 0 mm 6 mps 749 mmHg 64%
    22:00 +16°C° 0 mm 6 mps 749 mmHg 62%
    23:00 +15°C° 0 mm 6 mps 749 mmHg 59%
    Show more